This is the latest recevied weather packets stored in our database for station/object OM3WYM-13. If no packets are shown the sender has not sent any weather packets the latest 10 day(s).
| Time | Temp. | Humidity | Pressure | Rain* | Wind** | Luminosity | Snow |
|---|---|---|---|---|---|---|---|
| 1777829408 | 18.33° C | 36% | 1017.2 hPa | - | - | - | - |
| 1777828808 | 19.44° C | 33% | 1017 hPa | - | - | - | - |
| 1777828208 | 21.11° C | 30% | 1016.8 hPa | - | - | - | - |
| 1777827608 | 23.33° C | 28% | 1016.5 hPa | - | - | - | - |
| 1777827008 | 24.44° C | 24% | 1016.5 hPa | - | - | - | - |
| 1777826408 | 25.56° C | 22% | 1016.3 hPa | - | - | - | - |
| 1777825809 | 25.56° C | 23% | 1016.4 hPa | - | - | - | - |
| 1777825209 | 25.56° C | 22% | 1016.5 hPa | - | - | - | - |
| 1777824609 | 25.56° C | 23% | 1016.5 hPa | - | - | - | - |
| 1777824008 | 25° C | 23% | 1016.7 hPa | - | - | - | - |
| 1777823408 | 25° C | 23% | 1016.8 hPa | - | - | - | - |
| 1777822808 | 24.44° C | 24% | 1016.8 hPa | - | - | - | - |
| 1777822208 | 25.56° C | 23% | 1016.8 hPa | - | - | - | - |
| 1777821608 | 26.11° C | 22% | 1016.8 hPa | - | - | - | - |
| 1777821009 | 26.11° C | 22% | 1016.8 hPa | - | - | - | - |
| 1777820408 | 26.11° C | 22% | 1017 hPa | - | - | - | - |
| 1777819809 | 26.11° C | 22% | 1017.1 hPa | - | - | - | - |
| 1777819208 | 25.56° C | 23% | 1017.2 hPa | - | - | - | - |
| 1777818608 | 25.56° C | 23% | 1017.5 hPa | - | - | - | - |
| 1777818008 | 25° C | 24% | 1017.6 hPa | - | - | - | - |
| 1777817409 | 25° C | 24% | 1017.7 hPa | - | - | - | - |
| 1777816810 | 24.44° C | 25% | 1018 hPa | - | - | - | - |
| 1777816208 | 25° C | 24% | 1017.9 hPa | - | - | - | - |
| 1777815609 | 24.44° C | 24% | 1018.1 hPa | - | - | - | - |
| 1777815008 | 24.44° C | 24% | 1018.2 hPa | - | - | - | - |
* Rain since midnight (hover to see other rain measurements)
** Current wind speed in m/s (hover to see current wind gust speed)